Location: Burgerwiesen
(48.6500°N, 15.6167°E)
Time: 12:26:30
(UTC+00:00)

Aureole 1 Rocket - Pass Details

Date: 09 April 2020
Orbit: 379 x 1379 km, 73.9° (Epoch: 27 May)

Event Time Altitude Azimuth Distance (km) Brightness Sun altitude
Rises 18:34:06 0° 198° (SSW) 4,177 7.2 -9.2°
Reaches altitude 10° 18:37:06 10° 197° (SSW) 3,097 6.6 -9.7°
Maximum altitude 18:44:25 82° 111° (ESE) 1,000 4.0 -10.8°
Drops below altitude 10° 18:50:03 10° 25° (NNE) 2,413 6.1 -11.6°
Sets 18:52:09 0° 25° (NNE) 3,208 6.8 -11.9°
